Wind_Speed
24 23 23 23 24 24 26 26 26 26 26 26 26 22 17 14 11 11 10 13 14 14 13 13 10 10 10 10 13 12 14 22 17 18 16 17 14 10 6 4 9 2 5 5 7
24 24 24 24 24 24 25 25 25 25 26 26 24 19 16 11 10 11 11 12 13 12 13 11 8 9 10 10 12 13 14 12 8 12 10 13 11 2 5 3 8 8 16 11 8
24 24 24 24 24 24 24 24 24 26 27 26 22 16 12 9 8 9 9 10 12 10 8 8 9 10 10 10 13 13 14 7 4 3 2 1 5 7 8 10 7 7 6 3 11
25 23 23 24 23 23 23 23 24 26 25 23 18 13 10 7 5 11 9 9 8 7 4 7 8 9 10 11 12 11 13 9 8 10 11 9 7 6 4 3 7 7 7 8 14
24 23 23 23 23 22 22 22 24 26 22 18 13 10 9 8 9 10 5 1 4 4 3 7 7 8 9 10 9 13 9 6 8 8 7 10 12 10 2 5 9 13 12 17 18
24 22 22 22 22 22 22 23 24 23 18 14 10 8 8 9 11 7 3 2 3 4 5 9 7 9 7 8 11 7 5 4 8 14 12 9 4 7 3 8 13 14 19 19 20
23 22 21 22 21 21 21 22 23 18 14 10 7 8 9 10 12 8 5 3 4 4 5 9 11 6 4 4 7 11 8 12 9 12 12 9 7 8 6 9 14 17 18 19 19
24 22 21 21 20 20 20 21 20 14 11 9 8 9 8 13 11 11 7 4 4 3 4 8 10 12 7 9 8 9 12 13 13 13 10 12 13 9 8 11 14 16 17 18 18
24 22 21 21 19 19 19 19 16 12 9 8 9 9 7 12 12 7 7 5 6 3 3 4 5 7 7 10 15 13 11 14 11 15 10 12 13 12 13 13 14 16 18 19 19
25 23 21 20 19 17 18 15 12 10 9 8 10 5 9 7 13 12 6 4 4 3 4 1 7 8 12 14 15 15 17 16 14 15 15 9 7 12 17 16 15 16 17 19 19
25 24 21 20 17 16 16 10 8 8 9 9 7 13 9 14 17 13 8 4 5 4 6 4 7 11 15 16 5 8 11 12 13 12 13 12 8 12 18 18 18 16 16 17 18
27 25 22 20 16 16 13 8 11 9 7 11 12 15 12 13 15 14 13 7 9 13 11 12 9 12 13 13 6 6 6 10 9 11 10 11 12 12 15 18 19 19 18 18 19
28 26 23 19 16 13 10 11 10 8 5 10 14 15 11 11 12 15 15 9 11 7 17 11 8 8 9 7 6 5 8 4 8 13 14 10 16 17 17 16 20 19 20 20 20
29 26 24 19 16 12 10 12 11 8 4 11 20 17 12 10 11 16 15 11 10 11 11 0 10 8 6 7 8 10 9 5 5 11 21 19 18 19 20 21 19 19 21 22 19
30 27 25 21 15 14 20 16 13 10 5 10 17 12 11 12 2 14 17 13 11 10 15 9 7 6 9 4 9 3 4 4 8 15 12 17 12 25 19 18 17 17 18 19 21
32 30 27 21 17 20 20 19 15 7 8 11 19 19 15 14 10 9 17 17 11 9 12 12 7 6 2 8 6 5 2 5 9 13 12 17 15 6 16 12 14 15 17 20 20
33 32 27 24 23 26 24 21 10 14 7 14 20 20 18 13 12 12 17 19 19 13 14 11 9 8 6 5 4 6 8 13 7 6 9 1 7 18 6 7 9 15 17 19 19
36 34 30 26 27 31 28 25 15 11 13 8 19 20 20 15 14 13 16 21 21 18 17 17 10 12 10 10 5 8 10 8 6 7 7 3 8 5 7 8 8 13 16 17 18
40 37 33 28 32 35 32 26 25 8 17 12 16 22 21 16 12 15 18 21 19 20 16 21 7 10 10 8 6 7 8 4 5 7 7 16 8 5 7 7 8 13 17 19 19
40 37 32 32 40 38 32 29 25 10 14 15 20 22 22 20 16 17 18 19 16 17 16 6 5 6 7 8 9 9 4 4 7 3 6 5 5 5 1 4 6 13 17 19 19
41 38 35 36 43 42 36 28 20 13 12 17 20 19 20 19 19 18 18 12 17 16 19 14 13 6 6 11 12 7 11 9 7 5 4 3 2 4 2 3 5 11 16 19 19
45 32 41 41 47 41 37 27 20 17 14 14 18 17 19 19 18 16 20 16 17 15 15 16 10 13 13 10 13 10 11 12 11 8 7 4 9 6 4 1 3 8 14 17 19
48 33 30 44 48 38 33 26 25 19 18 17 18 20 18 18 16 17 16 19 14 19 16 14 12 15 12 11 14 13 13 13 13 9 11 5 6 4 9 13 11 7 12 16 20
42 36 36 52 46 38 36 29 27 22 17 18 19 18 16 17 18 14 14 17 21 17 18 15 16 16 17 13 5 12 14 16 17 14 15 18 17 12 11 10 10 11 12 17 20
46 43 50 53 54 42 34 28 27 28 19 18 20 21 18 17 18 13 14 14 17 17 17 15 13 15 19 14 11 12 12 13 20 23 22 19 17 14 14 15 14 15 16 17 22
49 41 31 32 46 36 38 33 31 27 20 21 21 22 19 15 17 14 15 12 14 18 17 17 12 13 14 14 14 17 18 18 19 21 23 24 25 21 20 16 16 15 17 17 20
46 38 35 36 48 41 41 36 30 26 22 20 23 23 20 16 15 11 13 12 10 13 16 11 12 10 11 9 9 14 21 22 22 22 21 23 22 19 16 16 14 13 16 17 18
Wind_Direction
281 285 288 291 294 300 304 304 302 303 304 308 307 305 296 285 276 277 268 251 255 267 266 267 266 254 233 228 223 226 244 252 245 245 214 187 143 121 92 86 158 268 210 277 234
280 282 286 289 293 297 302 301 301 301 306 308 306 299 291 271 270 273 270 265 265 258 258 261 251 239 220 226 220 212 234 279 254 249 187 146 147 154 139 123 202 229 259 257 205
280 283 285 287 292 297 300 300 301 304 307 309 304 295 282 260 280 288 278 264 253 248 241 241 231 225 216 222 209 221 239 275 335 52 13 174 170 167 225 196 179 210 240 284 168
277 281 283 287 291 296 297 299 301 305 308 309 302 290 266 234 125 270 273 273 260 256 212 217 214 212 219 220 210 222 235 266 249 182 140 172 173 169 166 349 137 193 243 155 156
274 278 281 285 289 294 294 296 302 305 306 302 295 275 247 229 222 272 281 252 159 161 179 205 203 209 222 221 211 215 248 248 202 209 197 216 248 101 68 46 129 183 159 150 150
273 276 278 282 287 292 294 294 302 302 301 293 285 258 234 217 225 229 187 167 214 224 232 219 214 214 237 206 205 213 203 165 192 189 204 233 184 118 83 108 133 146 147 156 155
269 272 274 278 283 289 293 294 301 297 297 285 265 237 231 217 201 194 183 213 256 243 216 238 215 216 230 216 191 163 138 117 182 184 210 196 162 125 126 120 146 146 150 157 160
264 265 269 273 279 285 290 296 295 293 286 265 236 223 214 206 201 179 187 219 228 221 218 230 219 213 223 183 147 157 198 182 191 197 205 184 161 182 179 141 144 154 159 164 171
257 260 263 269 273 282 288 295 292 289 274 247 223 219 185 205 190 186 223 228 211 213 210 242 212 206 203 180 183 195 190 197 199 193 198 205 155 175 185 165 165 164 169 170 179
251 252 255 262 267 277 287 288 289 281 256 225 210 204 210 188 204 191 214 222 171 244 199 29 183 197 185 191 208 203 216 179 183 184 192 197 157 183 193 183 187 179 177 179 186
246 247 251 256 264 272 280 280 281 289 247 196 218 192 182 211 201 196 213 205 190 222 217 239 182 195 189 206 230 230 193 200 171 179 192 200 188 185 193 195 198 196 193 193 199
241 241 244 249 256 264 266 245 225 235 250 222 207 194 199 202 204 200 210 203 209 209 182 238 199 214 195 201 215 226 183 163 156 181 198 202 193 194 196 203 208 206 206 206 205
236 237 239 241 248 256 241 220 213 212 211 239 202 185 188 206 203 203 217 218 217 239 221 266 207 185 166 192 215 201 243 213 198 195 203 210 205 206 214 203 208 213 215 214 217
232 234 235 235 240 232 213 204 193 199 234 224 201 192 196 186 222 201 214 210 216 229 260 27 197 178 207 224 234 205 210 204 199 201 213 208 239 194 208 214 230 225 209 210 210
227 228 230 227 228 204 200 187 181 169 249 194 188 192 197 189 191 219 212 212 221 224 217 218 196 188 210 192 228 99 162 208 234 254 241 206 254 227 203 205 219 227 223 208 213
222 224 224 220 214 210 188 181 174 191 236 195 189 192 189 201 220 203 208 208 213 222 212 242 215 185 166 220 219 261 238 248 256 257 266 265 251 241 210 222 215 209 209 201 218
219 221 218 212 195 188 184 181 177 225 177 198 191 190 192 198 205 209 201 204 209 214 211 196 201 217 207 191 207 222 253 258 215 250 245 221 261 258 270 238 227 221 204 209 214
216 215 213 208 196 186 183 186 217 219 206 195 189 194 196 198 205 202 203 208 212 225 225 208 200 209 212 222 271 225 275 275 277 290 273 159 255 187 218 277 223 209 200 208 218
214 213 209 201 191 188 188 203 208 216 200 196 191 198 199 201 204 201 204 209 212 219 209 239 195 191 204 219 224 227 252 245 278 285 276 260 232 253 273 253 243 201 197 207 213
214 213 204 198 189 192 196 208 211 223 202 202 197 197 196 196 197 196 199 207 206 212 233 241 219 192 230 221 240 226 211 234 223 263 256 226 245 103 200 205 212 201 201 208 212
207 207 202 194 190 198 204 208 206 223 210 209 207 205 204 197 201 202 205 205 210 217 217 231 236 207 214 235 241 234 237 242 264 250 290 305 120 135 164 181 203 201 207 212 214
200 196 203 191 192 203 203 199 203 218 223 211 216 211 204 198 203 211 213 219 212 207 214 225 242 245 256 241 242 241 248 240 236 234 230 278 289 311 206 151 249 218 219 216 217
193 192 199 195 197 201 202 206 208 215 218 218 211 205 200 200 205 211 213 218 217 214 218 226 236 243 241 255 252 239 241 237 235 240 241 248 266 248 276 291 297 252 231 226 223
180 190 198 198 196 200 197 202 211 210 218 217 212 204 197 203 204 212 211 224 219 212 218 218 230 233 240 267 270 225 241 238 229 232 246 250 269 280 258 269 263 259 242 239 232
177 199 199 197 195 198 197 199 203 206 214 209 205 204 197 197 203 210 204 223 216 218 216 214 233 243 248 259 265 254 256 248 240 244 246 265 267 281 288 279 271 265 254 243 241
184 189 207 204 190 193 199 202 202 200 212 211 210 198 195 203 203 212 214 214 218 220 223 230 239 243 253 252 264 260 256 253 248 248 251 261 269 285 279 276 265 269 257 252 256
174 186 203 196 187 194 195 194 198 196 210 203 205 200 198 206 199 207 205 213 211 219 222 223 226 244 255 249 265 270 266 255 255 254 256 264 271 280 276 291 280 265 265 278 271
Height
3151 3150 3150 3150 3148 3146 3144 3142 3140 3138 3136 3133 3132 3129 3128 3127 3127 3127 3129 3129 3128 3129 3129 3130 3130 3131 3132 3135 3138 3139 3139 3132 3129 3129 3122 3127 3132 3131 3134 3135 3138 3139 3140 3138 3137
3147 3146 3146 3145 3144 3143 3141 3139 3138 3136 3132 3130 3128 3126 3125 3125 3125 3126 3127 3125 3126 3127 3127 3128 3131 3131 3133 3135 3136 3137 3135 3130 3128 3125 3121 3123 3131 3131 3133 3134 3139 3140 3137 3138 3139
3143 3143 3142 3142 3141 3139 3137 3136 3134 3132 3129 3127 3125 3124 3123 3123 3125 3126 3124 3124 3124 3125 3126 3128 3131 3132 3133 3134 3135 3136 3133 3133 3127 3126 3129 3127 3130 3131 3134 3133 3135 3138 3138 3138 3139
3138 3138 3138 3138 3137 3135 3134 3133 3130 3129 3126 3124 3122 3121 3121 3122 3127 3123 3122 3123 3123 3124 3124 3127 3130 3132 3133 3134 3134 3135 3135 3133 3135 3135 3134 3133 3131 3133 3135 3135 3135 3137 3137 3139 3142
3133 3134 3134 3133 3133 3131 3130 3129 3127 3125 3123 3121 3120 3119 3120 3121 3123 3122 3122 3122 3123 3124 3125 3127 3130 3132 3133 3134 3134 3134 3135 3133 3133 3133 3131 3132 3131 3125 3135 3134 3136 3136 3139 3143 3146
3129 3129 3129 3129 3129 3128 3126 3126 3123 3122 3119 3118 3118 3118 3119 3121 3121 3122 3123 3123 3124 3124 3125 3127 3130 3132 3132 3132 3133 3134 3135 3134 3132 3134 3133 3133 3128 3139 3137 3137 3137 3137 3143 3146 3149
3124 3125 3125 3125 3125 3124 3123 3122 3120 3119 3117 3117 3116 3117 3118 3120 3120 3122 3124 3124 3124 3125 3125 3128 3129 3131 3131 3133 3132 3134 3134 3135 3135 3136 3136 3134 3138 3139 3138 3138 3139 3142 3146 3148 3151
3119 3119 3120 3120 3121 3120 3120 3119 3117 3116 3115 3115 3115 3115 3116 3118 3120 3122 3124 3125 3125 3125 3125 3125 3127 3128 3130 3131 3132 3135 3136 3136 3137 3136 3136 3138 3136 3139 3139 3141 3144 3146 3148 3151 3152
3113 3115 3116 3117 3117 3116 3116 3115 3115 3114 3113 3114 3115 3115 3117 3119 3120 3124 3125 3126 3125 3125 3125 3125 3126 3127 3129 3130 3132 3132 3133 3134 3135 3135 3136 3138 3137 3139 3141 3144 3146 3147 3148 3150 3150
3108 3110 3111 3113 3113 3113 3113 3112 3112 3112 3112 3113 3114 3118 3119 3121 3121 3122 3124 3125 3126 3125 3126 3125 3126 3129 3129 3130 3128 3127 3127 3130 3130 3135 3136 3136 3136 3139 3141 3144 3146 3148 3148 3150 3150
3103 3106 3107 3109 3110 3110 3111 3111 3114 3114 3111 3112 3113 3114 3116 3118 3120 3123 3124 3125 3126 3127 3127 3127 3128 3127 3130 3128 3128 3126 3126 3127 3128 3133 3134 3135 3136 3138 3140 3143 3146 3147 3148 3149 3149
3098 3100 3103 3105 3106 3107 3108 3109 3110 3112 3110 3110 3110 3112 3114 3117 3119 3122 3123 3126 3127 3125 3126 3128 3127 3127 3126 3128 3128 3126 3126 3126 3129 3132 3133 3134 3135 3137 3138 3140 3143 3145 3145 3146 3147
3093 3096 3098 3101 3103 3105 3106 3107 3108 3109 3109 3110 3109 3111 3114 3117 3119 3122 3123 3125 3125 3126 3125 3122 3126 3125 3126 3127 3127 3126 3126 3129 3127 3130 3131 3132 3132 3133 3134 3138 3139 3141 3143 3144 3143
3088 3091 3095 3097 3102 3102 3104 3106 3108 3109 3110 3109 3107 3109 3112 3114 3118 3120 3121 3125 3124 3125 3124 3123 3123 3125 3126 3126 3126 3125 3125 3127 3128 3128 3125 3128 3120 3126 3129 3130 3132 3134 3137 3139 3140
3082 3086 3090 3093 3097 3100 3101 3105 3107 3109 3108 3106 3107 3110 3111 3114 3116 3116 3119 3122 3122 3123 3126 3122 3124 3124 3125 3125 3126 3124 3125 3128 3128 3125 3124 3124 3123 3116 3127 3127 3127 3128 3130 3133 3134
3075 3080 3085 3090 3094 3096 3099 3104 3107 3112 3102 3103 3104 3105 3109 3111 3114 3115 3116 3120 3121 3122 3123 3121 3123 3124 3123 3125 3126 3126 3128 3128 3127 3125 3122 3120 3121 3116 3120 3124 3125 3126 3127 3129 3129
3070 3074 3081 3085 3089 3092 3098 3103 3107 3103 3098 3101 3101 3103 3106 3108 3111 3112 3114 3117 3119 3122 3121 3122 3124 3123 3124 3127 3127 3128 3128 3125 3123 3121 3122 3121 3123 3121 3120 3120 3123 3122 3123 3124 3125
3063 3068 3075 3081 3085 3090 3095 3100 3098 3092 3095 3097 3099 3102 3103 3106 3108 3110 3112 3114 3117 3117 3117 3119 3121 3122 3124 3126 3124 3126 3125 3123 3123 3120 3119 3119 3119 3117 3117 3118 3119 3120 3121 3121 3122
3055 3062 3068 3077 3082 3087 3091 3092 3092 3090 3093 3096 3098 3100 3101 3103 3106 3108 3110 3111 3114 3115 3118 3115 3115 3118 3121 3123 3126 3124 3125 3125 3125 3125 3126 3119 3114 3115 3115 3115 3116 3118 3119 3119 3119
3049 3057 3066 3071 3076 3083 3085 3086 3089 3090 3092 3095 3095 3096 3097 3100 3104 3106 3108 3110 3111 3112 3114 3114 3115 3118 3119 3122 3122 3124 3124 3125 3124 3124 3118 3107 3111 3109 3115 3115 3114 3117 3117 3117 3118
3044 3050 3059 3065 3071 3076 3073 3081 3086 3088 3090 3094 3094 3095 3095 3098 3101 3103 3105 3108 3110 3111 3114 3116 3118 3118 3119 3119 3119 3120 3121 3122 3121 3121 3118 3114 3108 3112 3114 3114 3113 3115 3116 3116 3115
3036 3045 3047 3057 3063 3065 3070 3077 3083 3086 3087 3089 3091 3093 3093 3096 3099 3101 3103 3107 3107 3111 3113 3115 3115 3115 3117 3115 3116 3117 3117 3118 3119 3119 3119 3119 3114 3110 3111 3112 3112 3113 3113 3114 3114
3026 3041 3045 3052 3051 3057 3068 3074 3078 3082 3085 3087 3089 3091 3092 3094 3098 3100 3102 3102 3105 3107 3111 3112 3113 3113 3114 3116 3113 3113 3115 3116 3117 3116 3116 3117 3114 3110 3109 3109 3109 3110 3111 3110 3111
3023 3030 3036 3039 3049 3057 3062 3067 3074 3078 3081 3084 3087 3089 3090 3092 3095 3097 3099 3099 3102 3104 3107 3109 3110 3110 3110 3109 3109 3110 3111 3112 3114 3114 3113 3111 3110 3110 3107 3107 3108 3106 3107 3108 3107
3010 3017 3020 3024 3035 3050 3058 3064 3069 3074 3077 3080 3083 3085 3087 3090 3092 3094 3097 3096 3099 3101 3104 3106 3107 3108 3108 3108 3107 3108 3109 3109 3109 3109 3109 3108 3108 3107 3108 3106 3105 3104 3102 3102 3100
3001 3013 3019 3029 3038 3046 3053 3057 3064 3069 3074 3076 3080 3082 3085 3087 3090 3092 3094 3095 3096 3099 3100 3102 3104 3104 3104 3105 3104 3104 3105 3105 3105 3105 3104 3104 3103 3105 3101 3101 3099 3098 3096 3096 3095
2993 3007 3017 3023 3031 3042 3044 3052 3059 3066 3069 3072 3077 3080 3083 3085 3085 3088 3090 3093 3095 3095 3097 3099 3100 3101 3102 3101 3101 3100 3097 3098 3099 3099 3100 3099 3100 3098 3096 3095 3093 3092 3091 3091 3090